Time,TemperatureF,DewpointF,PressureIn,WindDirection,WindDirectionDegrees,WindSpeedMPH,WindSpeedGustMPH,Humidity,HourlyPrecipIn,Conditions,Clouds,dailyrainin,SoftwareType,DateUTC
2013-06-24 00:00:00,48.6,41.0,29.80,West,263,10.0,14.0,75,0.00,RA,,0.00,WeatherDisplay:10.37,2013-06-23 23:00:00,
2013-06-24 00:10:00,48.6,41.0,29.81,WSW,247,9.0,13.0,75,0.00,CLR,,0.00,WeatherDisplay:10.37,2013-06-23 23:10:00,
2013-06-24 00:20:00,48.6,41.0,29.81,WSW,245,9.0,18.0,75,0.00,CLR,,0.00,WeatherDisplay:10.37,2013-06-23 23:20:00,
2013-06-24 00:30:00,48.5,40.9,29.82,WSW,241,7.0,13.0,75,0.00,CLR,,0.00,WeatherDisplay:10.37,2013-06-23 23:30:00,
2013-06-24 00:40:00,47.8,40.6,29.82,WSW,242,7.0,13.0,76,0.00,CLR,,0.00,WeatherDisplay:10.37,2013-06-23 23:40:00,
2013-06-24 00:50:00,47.2,40.4,29.83,WSW,253,5.0,6.0,77,0.02,RA,,0.02,WeatherDisplay:10.37,2013-06-23 23:50:00,
2013-06-24 01:00:00,46.8,40.6,29.83,WSW,251,3.0,7.0,79,0.00,CLR,,0.02,WeatherDisplay:10.37,2013-06-24 00:00:00,
2013-06-24 01:10:00,46.6,40.7,29.83,WSW,256,5.0,10.0,80,0.00,CLR,,0.02,WeatherDisplay:10.37,2013-06-24 00:10:00,
2013-06-24 01:20:00,46.6,41.1,29.83,WSW,242,5.0,13.0,81,0.00,CLR,,0.02,WeatherDisplay:10.37,2013-06-24 00:20:00,
2013-06-24 01:30:00,46.4,41.2,29.84,WSW,243,6.0,10.0,82,0.00,CLR,,0.02,WeatherDisplay:10.37,2013-06-24 00:30:00,
2013-06-24 01:40:00,46.0,40.9,29.84,WSW,243,6.0,8.0,82,0.00,CLR,,0.02,WeatherDisplay:10.37,2013-06-24 00:40:00,
2013-06-24 01:50:00,46.0,40.8,29.84,WSW,242,6.0,12.0,82,0.00,CLR,,0.02,WeatherDisplay:10.37,2013-06-24 00:50:00,
2013-06-24 02:00:00,45.7,40.8,29.84,WSW,241,9.0,12.0,83,0.00,CLR,,0.02,WeatherDisplay:10.37,2013-06-24 01:00:00,
2013-06-24 02:10:00,45.7,40.8,29.85,SW,233,7.0,12.0,83,0.00,CLR,,0.02,WeatherDisplay:10.37,2013-06-24 01:10:00,
2013-06-24 02:20:00,45.7,40.8,29.85,WSW,238,8.0,10.0,83,0.00,CLR,,0.02,WeatherDisplay:10.37,2013-06-24 01:20:00,
2013-06-24 02:30:00,45.5,40.6,29.85,SW,235,7.0,9.0,83,0.00,CLR,,0.02,WeatherDisplay:10.37,2013-06-24 01:30:00,
2013-06-24 02:40:00,45.5,40.9,29.85,WSW,238,9.0,12.0,84,0.02,RA,,0.04,WeatherDisplay:10.37,2013-06-24 01:40:00,
2013-06-24 02:50:00,45.5,40.9,29.85,SW,234,6.0,10.0,84,0.00,CLR,,0.04,WeatherDisplay:10.37,2013-06-24 01:50:00,
2013-06-24 03:00:00,45.3,40.8,29.86,WSW,239,2.0,9.0,84,0.00,CLR,,0.04,WeatherDisplay:10.37,2013-06-24 02:00:00,
2013-06-24 03:10:00,45.3,40.8,29.86,WSW,254,3.0,7.0,84,0.00,CLR,,0.04,WeatherDisplay:10.37,2013-06-24 02:10:00,
2013-06-24 03:20:00,45.5,40.9,29.86,WSW,240,6.0,8.0,84,0.00,CLR,,0.04,WeatherDisplay:10.37,2013-06-24 02:20:00,
2013-06-24 03:30:00,45.8,41.2,29.86,SW,228,8.0,11.0,84,0.00,CLR,,0.04,WeatherDisplay:10.37,2013-06-24 02:30:00,
2013-06-24 03:40:00,45.7,41.1,29.86,SW,228,8.0,11.0,84,0.00,CLR,,0.04,WeatherDisplay:10.37,2013-06-24 02:40:00,
2013-06-24 03:50:00,45.6,41.0,29.86,SW,231,8.0,14.0,84,0.00,CLR,,0.04,WeatherDisplay:10.37,2013-06-24 02:50:00,
2013-06-24 04:00:00,45.3,40.8,29.86,WSW,238,2.0,9.0,84,0.00,CLR,,0.04,WeatherDisplay:10.37,2013-06-24 03:00:00,
2013-06-24 04:10:00,45.1,40.6,29.87,West,264,5.0,5.0,84,0.00,CLR,,0.04,WeatherDisplay:10.37,2013-06-24 03:10:00,
2013-06-24 04:20:00,45.1,40.6,29.88,WNW,283,5.0,6.0,84,0.00,CLR,,0.04,WeatherDisplay:10.37,2013-06-24 03:20:00,
2013-06-24 04:30:00,45.3,41.1,29.88,West,271,3.0,6.0,85,0.00,CLR,,0.04,WeatherDisplay:10.37,2013-06-24 03:30:00,
2013-06-24 04:40:00,45.5,41.3,29.88,WSW,241,5.0,8.0,85,0.00,CLR,,0.04,WeatherDisplay:10.37,2013-06-24 03:40:00,
2013-06-24 04:50:00,45.9,41.6,29.88,WSW,253,5.0,8.0,85,0.00,CLR,,0.04,WeatherDisplay:10.37,2013-06-24 03:50:00,
2013-06-24 05:00:00,46.0,41.8,29.88,WSW,253,6.0,7.0,85,0.00,CLR,,0.04,WeatherDisplay:10.37,2013-06-24 04:00:00,
2013-06-24 05:10:00,46.0,41.5,29.88,WSW,250,6.0,8.0,84,0.00,CLR,,0.04,WeatherDisplay:10.37,2013-06-24 04:10:00,
2013-06-24 05:20:00,46.2,41.7,29.89,WSW,244,7.0,12.0,84,0.00,CLR,,0.04,WeatherDisplay:10.37,2013-06-24 04:20:00,
2013-06-24 05:30:00,46.4,41.8,29.89,WSW,258,6.0,9.0,84,0.00,CLR,,0.04,WeatherDisplay:10.37,2013-06-24 04:30:00,
2013-06-24 05:40:00,46.6,42.0,29.89,WSW,251,3.0,9.0,84,0.00,CLR,,0.04,WeatherDisplay:10.37,2013-06-24 04:40:00,
2013-06-24 05:50:00,46.6,42.0,29.89,West,259,6.0,6.0,84,0.00,CLR,,0.04,WeatherDisplay:10.37,2013-06-24 04:50:00,
2013-06-24 06:00:00,46.6,42.0,29.89,WSW,251,5.0,6.0,84,0.00,CLR,,0.04,WeatherDisplay:10.37,2013-06-24 05:00:00,
2013-06-24 06:10:00,46.8,41.9,29.90,WSW,248,8.0,11.0,83,0.00,CLR,,0.04,WeatherDisplay:10.37,2013-06-24 05:10:00,
2013-06-24 06:20:00,47.3,42.1,29.91,West,268,5.0,8.0,82,0.00,CLR,,0.04,WeatherDisplay:10.37,2013-06-24 05:20:00,
2013-06-24 06:30:00,48.0,42.8,29.90,West,275,6.0,8.0,82,0.00,CLR,,0.04,WeatherDisplay:10.37,2013-06-24 05:30:00,
2013-06-24 06:50:00,51.6,45.6,29.90,WSW,255,8.0,10.0,80,0.00,CLR,,0.04,WeatherDisplay:10.37,2013-06-24 05:50:00,
2013-06-24 07:00:00,51.6,43.3,29.91,West,261,6.0,10.0,73,0.00,CLR,,0.04,WeatherDisplay:10.37,2013-06-24 06:00:00,
2013-06-24 07:20:00,50.4,41.4,29.91,West,281,8.0,15.0,71,0.00,CLR,,0.04,WeatherDisplay:10.37,2013-06-24 06:20:00,
2013-06-24 07:30:00,50.0,41.0,29.92,West,265,5.0,8.0,71,0.00,CLR,,0.04,WeatherDisplay:10.37,2013-06-24 06:30:00,
2013-06-24 07:40:00,50.1,41.4,29.92,West,260,3.0,8.0,72,0.00,CLR,,0.04,WeatherDisplay:10.37,2013-06-24 06:40:00,
2013-06-24 07:50:00,50.2,41.5,29.92,WSW,253,2.0,9.0,72,0.00,CLR,,0.04,WeatherDisplay:10.37,2013-06-24 06:50:00,
2013-06-24 08:00:00,50.6,42.2,29.93,West,277,2.0,8.0,73,0.00,CLR,,0.04,WeatherDisplay:10.37,2013-06-24 07:00:00,
2013-06-24 08:20:00,51.4,42.3,29.93,West,280,3.0,6.0,71,0.00,CLR,,0.04,WeatherDisplay:10.37,2013-06-24 07:20:00,
2013-06-24 08:40:00,55.0,44.7,29.94,SW,234,7.0,10.0,68,0.00,CLR,,0.04,WeatherDisplay:10.37,2013-06-24 07:40:00,
2013-06-24 09:00:00,55.3,42.5,29.94,WNW,292,2.0,8.0,62,0.00,CLR,,0.04,WeatherDisplay:10.37,2013-06-24 08:00:00,
2013-06-24 09:10:00,59.5,42.3,29.94,WNW,289,12.0,16.0,53,0.00,CLR,,0.04,WeatherDisplay:10.37,2013-06-24 08:10:00,
2013-06-24 09:20:00,62.2,42.2,29.94,WNW,289,5.0,9.0,48,0.00,CLR,,0.04,WeatherDisplay:10.37,2013-06-24 08:20:00,
2013-06-24 09:30:00,61.5,39.4,29.95,West,276,5.0,12.0,44,0.00,CLR,,0.04,WeatherDisplay:10.37,2013-06-24 08:30:00,
2013-06-24 09:50:00,56.7,37.7,29.95,West,275,6.0,8.0,49,0.00,CLR,,0.04,WeatherDisplay:10.37,2013-06-24 08:50:00,
2013-06-24 10:10:00,55.0,37.7,29.95,WNW,297,5.0,9.0,52,0.00,CLR,,0.04,WeatherDisplay:10.37,2013-06-24 09:10:00,
2013-06-24 10:20:00,54.9,38.0,29.96,West,279,2.0,9.0,53,0.00,CLR,,0.04,WeatherDisplay:10.37,2013-06-24 09:20:00,
2013-06-24 10:40:00,55.0,38.2,29.96,WNW,291,3.0,10.0,53,0.00,CLR,,0.04,WeatherDisplay:10.37,2013-06-24 09:40:00,
2013-06-24 10:50:00,56.2,39.8,29.97,WSW,249,3.0,10.0,54,0.00,CLR,,0.04,WeatherDisplay:10.37,2013-06-24 09:50:00,
2013-06-24 11:00:00,58.2,40.7,29.97,West,266,1.0,6.0,52,0.00,CLR,,0.04,WeatherDisplay:10.37,2013-06-24 10:00:00,
2013-06-24 11:10:00,58.0,39.4,29.97,WNW,293,5.0,7.0,50,0.00,CLR,,0.04,WeatherDisplay:10.37,2013-06-24 10:10:00,
2013-06-24 11:30:00,56.9,38.5,29.97,WNW,299,2.0,6.0,50,0.00,CLR,,0.04,WeatherDisplay:10.37,2013-06-24 10:30:00,
2013-06-24 11:40:00,56.3,38.4,29.97,WNW,289,6.0,9.0,51,0.00,CLR,,0.04,WeatherDisplay:10.37,2013-06-24 10:40:00,
2013-06-24 11:50:00,57.4,39.4,29.97,WNW,284,7.0,13.0,51,0.00,CLR,,0.04,WeatherDisplay:10.37,2013-06-24 10:50:00,
2013-06-24 12:00:00,58.2,39.1,29.97,West,276,2.0,9.0,49,0.00,CLR,,0.04,WeatherDisplay:10.37,2013-06-24 11:00:00,
2013-06-24 12:10:00,59.9,40.1,29.97,West,273,5.0,10.0,48,0.00,CLR,,0.04,WeatherDisplay:10.37,2013-06-24 11:10:00,
2013-06-24 12:20:00,63.5,42.3,29.98,West,275,5.0,11.0,46,0.00,CLR,,0.04,WeatherDisplay:10.37,2013-06-24 11:20:00,
2013-06-24 12:30:00,63.0,40.1,29.98,West,273,5.0,9.0,43,0.00,CLR,,0.04,WeatherDisplay:10.37,2013-06-24 11:30:00,
2013-06-24 12:40:00,60.9,37.6,29.98,West,268,5.0,8.0,42,0.00,CLR,,0.04,WeatherDisplay:10.37,2013-06-24 11:40:00,
2013-06-24 12:50:00,60.0,38.6,29.98,WNW,292,3.0,10.0,45,0.00,CLR,,0.04,WeatherDisplay:10.37,2013-06-24 11:50:00,
2013-06-24 13:10:00,60.9,39.4,29.98,West,279,2.0,6.0,45,0.00,CLR,,0.04,WeatherDisplay:10.37,2013-06-24 12:10:00,
2013-06-24 13:30:00,61.5,38.2,29.98,WNW,290,2.0,8.0,42,0.00,CLR,,0.04,WeatherDisplay:10.37,2013-06-24 12:30:00,
2013-06-24 13:40:00,61.6,37.7,29.98,WNW,300,3.0,7.0,41,0.00,CLR,,0.04,WeatherDisplay:10.37,2013-06-24 12:40:00,
2013-06-24 13:50:00,63.0,39.6,29.98,West,279,3.0,6.0,42,0.00,CLR,,0.04,WeatherDisplay:10.37,2013-06-24 12:50:00,
2013-06-24 14:00:00,64.1,39.9,29.99,WNW,288,2.0,4.0,41,0.00,CLR,,0.04,WeatherDisplay:10.37,2013-06-24 13:00:00,
2013-06-24 14:20:00,61.9,37.9,29.99,West,274,5.0,11.0,41,0.00,CLR,,0.04,WeatherDisplay:10.37,2013-06-24 13:20:00,
2013-06-24 14:30:00,61.2,37.9,29.99,WNW,286,3.0,10.0,42,0.00,CLR,,0.04,WeatherDisplay:10.37,2013-06-24 13:30:00,
2013-06-24 14:40:00,60.5,37.9,30.00,West,268,5.0,12.0,43,0.00,CLR,,0.04,WeatherDisplay:10.37,2013-06-24 13:40:00,
2013-06-24 14:50:00,60.6,38.0,30.00,WNW,294,6.0,8.0,43,0.00,CLR,,0.04,WeatherDisplay:10.37,2013-06-24 13:50:00,
2013-06-24 15:00:00,60.8,37.5,30.00,WNW,285,6.0,11.0,42,0.00,CLR,,0.04,WeatherDisplay:10.37,2013-06-24 14:00:00,
2013-06-24 15:10:00,61.4,38.1,30.00,WSW,258,6.0,8.0,42,0.00,CLR,,0.04,WeatherDisplay:10.37,2013-06-24 14:10:00,
2013-06-24 15:20:00,61.2,37.9,30.00,WNW,284,6.0,14.0,42,0.00,CLR,,0.04,WeatherDisplay:10.37,2013-06-24 14:20:00,
2013-06-24 15:30:00,62.4,39.6,30.00,WNW,289,2.0,14.0,43,0.00,CLR,,0.04,WeatherDisplay:10.37,2013-06-24 14:30:00,
2013-06-24 15:40:00,63.3,39.2,30.00,West,275,5.0,10.0,41,0.00,CLR,,0.04,WeatherDisplay:10.37,2013-06-24 14:40:00,
2013-06-24 15:50:00,62.4,37.1,30.00,WNW,297,5.0,10.0,39,0.00,CLR,,0.04,WeatherDisplay:10.37,2013-06-24 14:50:00,
2013-06-24 16:00:00,62.8,38.1,30.00,WNW,288,5.0,7.0,40,0.00,CLR,,0.04,WeatherDisplay:10.37,2013-06-24 15:00:00,
2013-06-24 16:10:00,62.1,37.5,30.00,WNW,296,6.0,12.0,40,0.00,CLR,,0.04,WeatherDisplay:10.37,2013-06-24 15:10:00,
2013-06-24 16:20:00,61.3,38.0,30.00,West,271,2.0,7.0,42,0.00,CLR,,0.04,WeatherDisplay:10.37,2013-06-24 15:20:00,
2013-06-24 16:30:00,60.8,37.5,30.01,West,277,7.0,10.0,42,0.00,CLR,,0.04,WeatherDisplay:10.37,2013-06-24 15:30:00,
2013-06-24 16:40:00,59.8,36.6,30.01,WNW,288,9.0,13.0,42,0.00,CLR,,0.04,WeatherDisplay:10.37,2013-06-24 15:40:00,
2013-06-24 16:50:00,59.6,37.6,30.01,West,281,3.0,9.0,44,0.00,CLR,,0.04,WeatherDisplay:10.37,2013-06-24 15:50:00,
2013-06-24 17:00:00,59.9,37.9,30.01,WNW,290,8.0,16.0,44,0.00,CLR,,0.04,WeatherDisplay:10.37,2013-06-24 16:00:00,
2013-06-24 17:10:00,58.0,37.3,30.01,WNW,291,5.0,17.0,46,0.00,CLR,,0.04,WeatherDisplay:10.37,2013-06-24 16:10:00,
2013-06-24 17:20:00,57.7,37.6,30.01,WNW,286,7.0,14.0,47,0.00,CLR,,0.04,WeatherDisplay:10.37,2013-06-24 16:20:00,
2013-06-24 17:30:00,58.1,37.4,30.02,WNW,289,9.0,12.0,46,0.00,CLR,,0.04,WeatherDisplay:10.37,2013-06-24 16:30:00,
2013-06-24 17:40:00,58.6,37.3,30.02,WNW,289,9.0,13.0,45,0.00,CLR,,0.04,WeatherDisplay:10.37,2013-06-24 16:40:00,
2013-06-24 17:50:00,58.5,37.7,30.03,WNW,282,8.0,13.0,46,0.00,CLR,,0.04,WeatherDisplay:10.37,2013-06-24 16:50:00,
2013-06-24 18:00:00,57.7,37.6,30.03,West,281,7.0,12.0,47,0.00,CLR,,0.04,WeatherDisplay:10.37,2013-06-24 17:00:00,
2013-06-24 18:20:00,56.3,38.4,30.03,WNW,286,7.0,13.0,51,0.00,CLR,,0.04,WeatherDisplay:10.37,2013-06-24 17:20:00,
2013-06-24 18:30:00,56.8,38.9,30.04,WNW,290,8.0,10.0,51,0.00,CLR,,0.04,WeatherDisplay:10.37,2013-06-24 17:30:00,
2013-06-24 18:40:00,57.3,38.8,30.04,WNW,287,10.0,14.0,50,0.00,CLR,,0.04,WeatherDisplay:10.37,2013-06-24 17:40:00,
2013-06-24 18:50:00,59.6,40.4,30.04,West,264,5.0,9.0,49,0.00,CLR,,0.04,WeatherDisplay:10.37,2013-06-24 17:50:00,
2013-06-24 19:20:00,57.4,38.4,30.04,West,281,5.0,8.0,49,0.00,CLR,,0.04,WeatherDisplay:10.37,2013-06-24 18:20:00,
2013-06-24 19:30:00,57.4,38.4,30.05,WNW,293,8.0,12.0,49,0.00,CLR,,0.04,WeatherDisplay:10.37,2013-06-24 18:30:00,
2013-06-24 19:50:00,56.1,37.2,30.05,West,265,6.0,9.0,49,0.00,CLR,,0.04,WeatherDisplay:10.37,2013-06-24 18:50:00,
2013-06-24 20:10:00,54.9,37.6,30.06,West,275,3.0,6.0,52,0.00,CLR,,0.04,WeatherDisplay:10.37,2013-06-24 19:10:00,
2013-06-24 20:20:00,54.3,37.5,30.06,West,272,3.0,7.0,53,0.00,CLR,,0.04,WeatherDisplay:10.37,2013-06-24 19:20:00,
2013-06-24 20:30:00,54.1,37.8,30.06,West,281,5.0,8.0,54,0.00,CLR,,0.04,WeatherDisplay:10.37,2013-06-24 19:30:00,
2013-06-24 20:40:00,54.0,37.7,30.06,WNW,284,3.0,8.0,54,0.00,CLR,,0.04,WeatherDisplay:10.37,2013-06-24 19:40:00,
2013-06-24 20:50:00,53.8,37.5,30.07,WNW,290,3.0,7.0,54,0.00,CLR,,0.04,WeatherDisplay:10.37,2013-06-24 19:50:00,
2013-06-24 21:10:00,52.7,37.4,30.08,WNW,294,5.0,8.0,56,0.00,CLR,,0.04,WeatherDisplay:10.37,2013-06-24 20:10:00,
2013-06-24 21:20:00,52.2,37.8,30.08,WNW,283,3.0,9.0,58,0.00,CLR,,0.04,WeatherDisplay:10.37,2013-06-24 20:20:00,
2013-06-24 21:40:00,51.6,37.7,30.08,WNW,289,2.0,4.0,59,0.00,CLR,,0.04,WeatherDisplay:10.37,2013-06-24 20:40:00,
2013-06-24 21:50:00,51.3,37.8,30.09,WNW,286,3.0,6.0,60,0.00,CLR,,0.04,WeatherDisplay:10.37,2013-06-24 20:50:00,
2013-06-24 22:00:00,50.9,37.9,30.09,WNW,283,3.0,5.0,61,0.00,CLR,,0.04,WeatherDisplay:10.37,2013-06-24 21:00:00,
2013-06-24 22:30:00,49.6,37.6,30.10,WNW,285,2.0,4.0,63,0.00,CLR,,0.04,WeatherDisplay:10.37,2013-06-24 21:30:00,
2013-06-24 22:40:00,49.1,37.4,30.11,WNW,292,2.0,4.0,64,0.00,CLR,,0.04,WeatherDisplay:10.37,2013-06-24 21:40:00,
2013-06-24 22:50:00,48.9,38.1,30.11,WNW,291,2.0,5.0,66,0.00,CLR,,0.04,WeatherDisplay:10.37,2013-06-24 21:50:00,
2013-06-24 23:00:00,47.9,37.5,30.11,WNW,287,2.0,3.0,67,0.00,CLR,,0.04,WeatherDisplay:10.37,2013-06-24 22:00:00,
2013-06-24 23:20:00,47.0,37.4,30.11,West,279,3.0,4.0,69,0.00,CLR,,0.04,WeatherDisplay:10.37,2013-06-24 22:20:00,
2013-06-24 23:30:00,46.8,37.6,30.11,West,280,5.0,6.0,70,0.00,CLR,,0.04,WeatherDisplay:10.37,2013-06-24 22:30:00,
2013-06-24 23:40:00,46.9,38.0,30.11,WNW,286,5.0,6.0,71,0.00,CLR,,0.04,WeatherDisplay:10.37,2013-06-24 22:40:00,